Location: Rock Island IL
(41.5000°N, 90.5500°W)
Time: 01:24:23
(UTC-05:00)

Daily predictions for brighter satellites

Satellite Brightness Start Highest point End
(mag) Time Altitude Azimuth Time Altitude Azimuth Time Altitude Azimuth
NOSS 3-4 (A) 4.5 00:13:13 40° WNW 00:14:08 42° NW 00:20:19 10° NNE
NOSS 3-4 (C) 4.4 00:13:24 41° WNW 00:14:14 43° NW 00:20:26 10° NNE
CENTAUR R/B 3.1 00:09:56 10° NW 00:17:32 81° N 00:17:32 81° N
Cosmos 2219 Rocket 4.1 00:22:53 21° WNW 00:24:05 23° NW 00:28:31 10° N
CZ-2C R/B 4.0 00:20:11 10° NNE 00:23:15 35° N 00:23:15 35° N
BREEZE-M DEB (TANK) 4.4 00:18:36 10° W 00:29:39 40° NNW 00:30:19 39° N
USA 215 4.2 00:31:04 37° NE 00:32:26 41° NNE 00:38:29 10° NW
SL-16 R/B 3.6 00:35:36 34° NNE 00:35:36 34° NNE 00:38:46 10° NNE
Cosmos 2333 Rocket 4.4 00:49:40 17° WNW 00:50:55 18° NW 00:54:44 10° N
COSMOS 2455 4.1 00:46:08 10° NNW 00:49:32 35° NW 00:49:32 35° NW
ATLAS CENTAUR R/B 3.8 00:42:57 10° NW 00:50:49 45° NNW 00:50:49 45° NNW
Cosmos 1943 Rocket 4.2 00:48:29 10° N 00:52:18 19° NE 00:52:18 19° NE
Cosmos 2237 Rocket 4.3 01:09:10 18° NW 01:09:40 18° NW 01:13:30 10° N
Cosmos 2369 Rocket 3.6 01:06:55 10° NNW 01:10:39 34° NNE 01:10:39 34° NNE
Mayak 1.7 01:48:02 10° NNW 01:48:32 12° NNW 01:48:32 12° NNW
USA 215 4.3 02:18:24 32° WNW 02:18:24 32° WNW 02:21:44 10° NW
Cosmos 1821 Rocket 4.5 02:26:21 53° ENE 02:26:21 53° ENE 02:31:53 10° NNE
Resurs 1-4 Rocket 3.8 02:25:39 10° NE 02:29:32 25° E 02:29:32 25° E
ADEOS Rocket 3.5 02:24:57 10° NNE 02:29:14 49° NE 02:29:14 49° NE
SL-16 R/B 3.5 02:33:18 35° ESE 02:34:57 42° ENE 02:40:44 10° N
Cosmos 1943 Rocket 3.6 02:31:09 10° NNW 02:33:47 29° NW 02:33:47 29° NW
Cosmos 1934 Rocket 4.5 02:37:07 49° E 02:37:07 49° E 02:42:46 10° NNE
Cosmos 1656 Rocket 4.2 02:34:45 10° NNW 02:39:55 55° NE 02:39:55 55° NE
ARIANE 5 R/B 4.1 02:37:35 10° NE 02:41:55 27° E 02:41:55 27° E
CZ-2D R/B 3.3 02:42:35 10° NNE 02:47:15 35° E 02:47:15 35° E
Cosmos 2369 Rocket 4.4 02:51:26 10° NW 02:52:24 14° NW 02:52:24 14° NW
Cosmos 2221 3.8 03:07:31 40° NNE 03:07:31 40° NNE 03:10:25 10° NNE
MOS 1 Rocket 4.4 03:03:49 10° NNE 03:07:17 37° ENE 03:07:17 37° ENE
Cosmos 372 Rocket 4.4 03:03:22 10° NNW 03:07:28 56° N 03:07:28 56° N
IRS-1D 4.0 03:05:31 10° NNE 03:10:29 56° E 03:10:29 56° E
Cosmos 540 Rocket 3.8 03:13:30 58° N 03:13:30 58° N 03:17:43 10° NNE
Cosmos 1805 Rocket 4.5 03:11:18 10° N 03:15:01 47° NE 03:15:01 47° NE
Cosmos 1315 Rocket 4.4 03:15:01 10° N 03:18:35 32° ENE 03:18:35 32° ENE
Spot 4 Rocket 4.1 03:14:32 10° NNE 03:19:36 69° E 03:19:36 69° E
CBERS-1 4.4 03:15:25 10° N 03:19:40 54° NNW 03:19:40 54° NNW
Cosmos 1726 3.9 03:22:35 30° ENE 03:22:35 30° ENE 03:25:04 10° NNE
AQUA 4.4 03:17:40 10° N 03:21:23 50° NNW 03:21:23 50° NNW
Cosmos 292 Rocket 4.3 03:23:48 53° E 03:23:48 53° E 03:28:15 10° NNE
ADEOS 3.8 03:22:37 10° NNE 03:27:47 60° ESE 03:28:18 57° SE
UNK 4.4 03:30:01 47° NNW 03:30:01 47° NNW 03:33:20 10° NNW
Cosmos 2098 Rocket 4.0 03:33:27 51° WNW 03:33:27 51° WNW 03:37:45 10° N
Cosmos 783 Rocket 4.4 03:33:51 84° WNW 03:33:51 84° WNW 03:39:08 10° NNE
CZ-2D R/B 4.3 03:37:51 10° NNE 03:41:39 41° E 03:41:45 41° ESE
MOZ.5/SAFIR/RUBIN 5/SL-8 4.0 03:42:45 53° SE 03:43:43 68° ENE 03:48:23 10° N
UNKNOWN OBJECT B 3.5 03:39:53 10° NNE 03:43:52 51° E 03:43:54 51° ESE
Cosmos 2285 Rocket 3.9 03:43:29 58° SSW 03:44:49 83° WNW 03:51:17 10° NNE
Lacrosse 5 3.5 03:40:49 10° NNW 03:45:25 33° NNE 03:50:01 10° E
Sich 1 3.1 03:41:04 10° N 03:45:28 72° E 03:45:34 71° E
Cosmos 1400 Rocket 4.4 03:45:21 10° NNW 03:47:12 25° NNW 03:47:12 25° NNW
ERS-1 4.5 03:45:26 10° N 03:50:19 59° WNW 03:50:23 59° WNW
USA 229 DEB 3.8 03:49:59 10° NW 03:56:58 55° WSW 04:04:03 10° SSE
USA 229 3.8 03:50:05 10° NW 03:57:04 56° WSW 04:04:10 10° SSE
NOSS 3-1 (A) 4.4 03:54:32 10° NNW 04:02:08 69° NE 04:10:32 10° SE
Cosmos 1538 Rocket 4.1 04:01:38 47° S 04:03:14 79° ESE 04:08:37 10° NNE
Cosmos 1833 Rocket 4.3 04:01:08 13° SSE 04:05:13 29° ESE 04:10:02 10° NE
Cosmos 1470 Rocket 4.4 04:02:24 10° N 04:06:36 48° E 04:10:11 14° SSE
COSMOS 2406 3.7 04:07:20 39° W 04:08:28 44° WNW 04:13:55 10° NNE
Resurs 1-4 Rocket 2.6 04:05:01 10° N 04:09:54 40° WNW 04:10:36 38° W
Cosmos 1515 Rocket 4.0 04:13:09 29° SSE 04:15:12 59° E 04:19:34 10° NNE
ADEOS Rocket 4.3 04:11:49 10° NNW 04:15:28 18° WNW 04:16:10 18° WNW
Cosmos 1633 Rocket 3.0 04:12:37 10° NNW 04:16:56 62° W 04:17:29 56° SW
Cosmos 1459 Rocket 3.9 04:13:16 25° S 04:17:02 83° E 04:23:07 10° N
Cosmos 1300 2.7 04:18:29 59° WNW 04:18:29 59° WNW 04:22:14 10° N
SL-16 R/B 3.2 04:18:24 32° W 04:18:38 32° W 04:24:07 10° NW
Cosmos 2228 Rocket 3.1 04:16:58 37° S 04:18:40 79° E 04:23:08 10° N
Meteor 2-2 Rocket 4.3 04:16:55 29° S 04:20:12 88° W 04:26:17 10° N
ARIANE 5 R/B 3.2 04:16:22 10° N 04:21:10 38° WNW 04:22:15 34° W
Cosmos 482 Debris 4.1 04:21:57 51° NE 04:21:57 51° NE 04:25:00 10° ESE
CZ-2D R/B 3.1 04:22:50 10° N 04:27:25 30° WNW 04:28:34 27° W
Cosmos 2278 4.0 04:23:14 10° NNW 04:28:53 70° ENE 04:34:30 10° SSE
Cosmos 1680 Rocket 4.4 04:26:01 14° S 04:30:21 47° ESE 04:35:27 10° NNE
NOSS 3-1 (C) 4.0 04:23:06 10° NW 04:30:43 69° WSW 04:39:04 10° SSE
SL-27 R/B 3.8 04:32:32 25° NW 04:32:32 25° NW 04:35:08 10° N
Cosmos 1455 3.4 04:31:15 12° SSE 04:34:28 40° E 04:38:00 10° NNE
Cosmos 1697 Rocket 3.9 04:30:33 10° NNW 04:35:59 45° ENE 04:41:23 10° SE
Cosmos 1328 Rocket 3.7 04:37:56 36° SW 04:39:17 51° W 04:43:33 10° N
BREEZE M DEB (TANK) 2.2 04:47:29 41° S 04:47:29 41° S 04:49:39 10° SE
Abrixas 4.5 04:49:42 14° SSE 04:49:42 14° SSE 04:50:14 10° SSE
PSLV R/B 4.2 04:43:58 10° NNE 04:48:14 55° E 04:52:26 10° S
Cosmos 2061 Rocket 4.1 04:43:52 18° SSW 04:48:47 64° W 04:55:11 10° N
Cosmos 773 Rocket 4.4 04:50:51 25° SW 04:53:41 48° WNW 04:58:51 10° N
Cosmos 2082 Rocket 2.3 04:49:26 15° SSW 04:54:08 79° ESE 04:59:48 10° NNE
ADEOS II 2.0 04:51:40 10° NNE 04:56:57 84° WNW 05:02:11 10° SSW
Cosmos 1726 4.1 04:57:13 14° WNW 04:57:13 14° WNW 04:59:10 10° NW
PSLV R/B 3.4 04:57:34 32° WSW 04:58:36 46° SSW 05:01:44 10° ESE
Cosmos 2016 Rocket 3.9 04:53:52 12° SSW 04:59:28 65° W 05:05:32 10° N
Cosmos 1933 Rocket 3.8 04:56:17 10° NNW 05:00:35 47° W 05:04:50 10° SSW
COSMOS 2487 2.4 04:59:47 22° SSW 05:01:57 74° WNW 05:05:30 10° NNE
Tiangong 2 1.2 05:02:41 28° SW 05:04:10 62° SSE 05:07:22 10° E
Cosmos 1864 Rocket 4.5 05:01:05 10° S 05:07:21 81° W 05:13:35 10° N
Cosmos 1151 Rocket 3.4 05:05:00 18° SW 05:07:49 43° WNW 05:11:55 10° N
Cosmos 1869 4.2 05:05:27 10° S 05:09:16 49° E 05:13:08 10° NNE
PSLV R/B 3.9 05:07:00 10° N 05:11:08 64° WNW 05:15:07 10° SSW
BREEZE-M DEB (TANK) 2.8 05:08:50 10° WNW 05:12:13 43° N 05:14:00 10° E
CZ-4B R/B 3.4 05:06:47 10° NNE 05:12:16 72° ESE 05:17:36 10° S
Meteor 2-3 Rocket 3.8 05:06:54 10° NNW 05:12:26 58° W 05:18:00 10° S
Cosmos 1725 Rocket 3.9 05:07:28 10° SSW 05:13:38 72° W 05:19:49 10° N
Meteor 1-31 Rocket 4.2 05:12:37 10° NNE 05:16:22 41° E 05:20:06 10° S
Cosmos 1892 3.2 05:13:30 10° NNW 05:17:05 38° W 05:20:39 10° SSW
Shenzhou-11 Module 2.0 05:15:35 19° WSW 05:17:38 89° N 05:20:44 10° ENE
Landsat 4 3.7 05:15:10 10° SSE 05:18:53 86° E 05:22:41 10° NNW
Okean O Rocket 1.6 05:14:54 10° N 05:19:20 76° WNW 05:23:42 10° SSW
Cosmos 1707 Rocket 4.1 05:15:14 10° S 05:19:34 61° E 05:23:54 10° NNE
Cosmos 1656 3.8 05:18:03 10° NNW 05:23:36 54° WSW 05:29:06 10° S
Cosmos 2369 4.1 05:18:35 10° NW 05:23:50 40° WSW 05:29:03 10° S
Cosmos 1825 2.6 05:23:25 10° N 05:27:13 66° E 05:30:59 10° SSE
Lacrosse 5 2.0 05:23:40 10° NW 05:28:34 51° SW 05:33:27 10° SSE
PAYLOAD B 4.3 05:23:12 10° N 05:28:48 73° WNW 05:34:21 10° SSW
Cosmos 1408 2.7 05:26:13 10° N 05:29:51 76° E 05:33:26 10° SSE
Hubble Space Telescope 2.9 05:29:39 10° SSW 05:31:28 13° S 05:33:17 10° SSE
CZ-4B R/B 4.2 05:30:32 10° NNE 05:34:18 63° E 05:37:56 10° S
CZ-4B R/B 3.7 05:32:50 10° N 05:37:01 40° WNW 05:41:14 10° SW
Tsikada Rocket 4.2 05:33:00 10° NNW 05:39:04 51° W 05:45:11 10° SSW
SL-16 R/B 4.3 05:37:18 10° N 05:42:25 33° ENE 05:47:29 10° ESE
OAO 2 Rocket 4.3 05:41:11 10° SW 05:45:37 34° S 05:50:07 10° ESE
Cosmos 1371 Rocket 4.0 05:40:49 10° NNW 05:46:03 75° WSW 05:51:18 10° SSE
MTI 3.7 05:43:16 10° SSE 05:46:28 88° WSW 05:49:42 10° NNW
ATLAS 2AS CENTAUR R/B 3.5 05:38:55 10° NNW 05:46:56 70° NE 05:54:21 10° SE
Cosmos 1833 Rocket 3.3 05:43:41 10° SW 05:48:57 40° WNW 05:54:16 10° N
